Station RPLV2 - 8632837 - Rappahannock Light, VA Image indicating link to RSS feed of recent meteorological observations for station RPLV2


Conditions at RPLV2 as of
(12:30 pm EDT)
1630 GMT on 06/23/2024:
     

Click on the graph icon in the table below to see a time series plot of the last five days of that observation.

5-day plot - Wind Direction Wind Direction (WDIR): S ( 180 deg true )
5-day plot - Wind Speed Wind Speed (WSPD): 17.1 kts
5-day plot - Wind Gust Wind Gust (GST): 20.0 kts
5-day plot - Atmospheric Pressure Atmospheric Pressure (PRES):29.90 in
5-day plot - Wind Speed at 10 Meters Wind Speed at 10 meters (WSPD10M): 15.5 kts
5-day plot - Wind Speed at 20 Meters Wind Speed at 20 meters (WSPD20M): 17.5 kts
5-day plot -  Wind Speed, Wind Gust and Atmospheric Pressure Combined plot of Wind Speed, Gust, and Air Pressure
NOS Water Level Observation Network Water Level
Previous observations
TIME
(EDT)
5-day plot - Wind Direction
WDIR
 
5-day plot - Wind Speed
WSPD
kts
5-day plot - Wind Gust
GST
kts
5-day plot - Wave Height
WVHT
ft
5-day plot - Dominant Wave Period
DPD
sec
5-day plot - Average Wave Period
APD
sec
5-day plot - Mean Wave Direction
MWD
 
5-day plot - Atmospheric Pressure
PRES
in
5-day plot - Pressure Tendency
PTDY
in
5-day plot - Air Temperature
ATMP
°F
5-day plot - Water Temperature
WTMP
°F
5-day plot - Dew Point
DEWP
°F
5-day plot - Salinity
SAL
psu
5-day plot - Visibility
VIS
nmi
5-day plot - Tide (above MLLW)
TIDE
ft
2024-06-23 12:24 pm S 15.0 18.1----29.90-------
2024-06-23 12:18 pm S 15.9 18.1----29.91-------
2024-06-23 12:12 pm S 15.9 18.1----29.91-------
2024-06-23 12:06 pm S 15.0 17.1----29.91-------
2024-06-23 12:00 pm S 15.9 18.1----29.91-------
2024-06-23 11:54 am S 15.9 18.1----29.91-------
2024-06-23 11:48 am S 14.0 17.1----29.91-------
2024-06-23 11:42 am S 14.0 17.1----29.92-------
2024-06-23 11:36 am S 15.0 17.1----29.92-------
2024-06-23 11:30 am S 15.0 17.1----29.92-------
2024-06-23 11:24 am S 14.0 15.9----29.92-------
2024-06-23 11:18 am S 15.0 17.1----29.92-------
2024-06-23 11:12 am S 15.0 15.9----29.92-------
2024-06-23 11:06 am S 15.0 15.9----29.92-------
2024-06-23 11:00 am S 15.0 18.1----29.92-0.04------
2024-06-23 10:54 am S 15.9 17.1----29.93-------
2024-06-23 10:48 am S 15.0 17.1----29.93-------
2024-06-23 10:42 am S 15.0 18.1----29.93-------
2024-06-23 10:36 am S 15.0 18.1----29.93-------
2024-06-23 10:30 am S 14.0 15.9----29.93-------
2024-06-23 10:24 am S 15.0 17.1----29.93-------
2024-06-23 10:18 am S 15.0 17.1----29.93-------
2024-06-23 10:12 am S 14.0 15.9----29.93-------
2024-06-23 10:06 am S 15.0 18.1----29.93-------
2024-06-23 10:00 am S 15.9 18.1------------
2024-06-23 09:54 am S 17.1 19.0------------
2024-06-23 09:48 am S 17.1 18.1----29.93-------
2024-06-23 09:42 am S 17.1 19.0----29.93-------
2024-06-23 09:36 am S 17.1 19.0----29.94-------
2024-06-23 09:30 am S 17.1 18.1----29.94-------
2024-06-23 09:24 am S 17.1 19.0----29.94-------
2024-06-23 09:18 amSSW 17.1 19.0----29.95-------
2024-06-23 09:12 am S 15.9 18.1----29.95-------
2024-06-23 09:06 amSSW 15.0 18.1----29.95-------
2024-06-23 09:00 amSSW 15.9 19.0------------
2024-06-23 08:54 amSSW 15.9 17.1------------
2024-06-23 08:48 amSSW 15.9 18.1----29.96-------
2024-06-23 08:42 amSSW 15.9 18.1----29.96-------
2024-06-23 08:36 amSSW 17.1 18.1----29.96-------
2024-06-23 08:30 amSSW 17.1 18.1----29.96-------
2024-06-23 08:24 amSSW 15.9 18.1----29.97-------
2024-06-23 08:18 amSSW 15.9 18.1----29.97-------
2024-06-23 08:12 amSSW 15.0 17.1----29.96-------
2024-06-23 08:06 amSSW 15.0 17.1----29.97-------
2024-06-23 08:00 amSSW 13.0 15.0----29.97+0.00------
2024-06-23 07:54 amSSW 13.0 15.0----29.97-------
2024-06-23 07:48 amSSW 13.0 15.0----29.96-------
2024-06-23 07:42 amSSW 14.0 15.9----29.96-------
2024-06-23 07:36 am S 14.0 15.9----29.96-------
2024-06-23 07:30 amSSW 14.0 15.9----29.97-------
2024-06-23 07:24 amSSW 13.0 15.0----29.97-------
2024-06-23 07:18 amSSW 15.0 15.9----29.97-------
2024-06-23 07:12 amSSW 14.0 17.1----29.97-------
2024-06-23 07:06 amSSW 14.0 15.9----29.97-------
2024-06-23 07:00 amSSW 13.0 15.9------------
2024-06-23 06:54 amSSW 13.0 15.0------------
2024-06-23 06:48 amSSW 12.0 15.0----29.97-------
2024-06-23 06:42 amSSW 13.0 15.0----29.97-------
2024-06-23 06:36 amSSW 14.0 15.9----29.97-------
2024-06-23 06:30 amSSW 14.0 15.9----29.97-------
2024-06-23 06:24 amSSW 14.0 15.9----29.97-------
2024-06-23 06:18 amSSW 14.0 15.0----29.97-------
2024-06-23 06:12 amSSW 12.0 15.0----29.96-------
2024-06-23 06:06 amSSW 13.0 15.0----29.96-------
2024-06-23 06:00 amSSW 13.0 15.0----29.96-0.01------
2024-06-23 05:54 amSSW 13.0 15.0----29.97-------
2024-06-23 05:48 amSSW 13.0 15.0----29.97-------
2024-06-23 05:42 amSSW 14.0 15.9----29.97-------
2024-06-23 05:36 amSSW 14.0 15.9----29.97-------
2024-06-23 05:30 amSSW 14.0 15.9----29.97-------
2024-06-23 05:24 amSSW 13.0 15.9----29.97-------
2024-06-23 05:18 amSSW 15.0 17.1----29.97-------
2024-06-23 05:12 amSSW 15.0 17.1----29.97-------
2024-06-23 05:06 amSSW 15.0 17.1----29.97-------
2024-06-23 05:00 amSSW 15.0 15.9----29.97-0.02------
2024-06-23 04:54 amSSW 15.0 17.1----29.97-------
2024-06-23 04:48 am S 15.0 17.1----29.97-------
2024-06-23 04:42 am S 15.0 17.1----29.96-------
2024-06-23 04:36 am S 15.0 17.1----29.96-------
2024-06-23 04:30 am S 15.0 17.1----29.97-------
2024-06-23 04:24 am S 15.0 17.1----29.96-------
2024-06-23 04:18 am S 15.9 17.1----29.96-------
2024-06-23 04:12 am S 17.1 18.1----29.97-------
2024-06-23 04:06 am S 15.9 17.1----29.97-------
2024-06-23 04:00 am S 15.9 17.1----29.97-0.02------
2024-06-23 03:54 am S 15.9 17.1----29.97-------
2024-06-23 03:48 am S 15.9 18.1----29.97-------
2024-06-23 03:42 am S 15.0 17.1----29.97-------
2024-06-23 03:36 am S 15.0 17.1----29.97-------
2024-06-23 03:30 am S 15.0 15.9----29.97-------
2024-06-23 03:24 am S 15.0 15.9----29.97-------
2024-06-23 03:18 am S 15.0 17.1----29.97-------
2024-06-23 03:12 am S 15.9 17.1----29.98-------
2024-06-23 03:06 am S 15.0 15.9----29.98-------
2024-06-23 03:00 am S 15.0 17.1----29.98-0.02------
2024-06-23 02:54 am S 15.9 17.1----29.98-------
2024-06-23 02:48 am S 15.9 18.1----29.98-------
2024-06-23 02:42 am S 15.9 17.1----29.98-------
2024-06-23 02:36 am S 15.9 17.1----29.98-------
2024-06-23 02:30 am S 15.9 18.1----29.98-------
2024-06-23 02:24 am S 15.9 19.0----29.98-------
2024-06-23 02:18 am S 17.1 19.0----29.98-------
2024-06-23 02:12 am S 17.1 18.1----29.98-------
2024-06-23 02:06 am S 17.1 18.1----29.98-------
2024-06-23 02:00 am S 17.1 19.0----29.99-0.01------
2024-06-23 01:54 am S 17.1 19.0----29.99-------
2024-06-23 01:48 am S 17.1 18.1----29.99-------
2024-06-23 01:42 am S 15.0 15.9----29.99-------
2024-06-23 01:36 am S 14.0 15.9----29.98-------
2024-06-23 01:30 am-------29.99-------
2024-06-23 01:24 am-------29.99-------
2024-06-23 01:18 am S 15.0 15.9----29.99-------
2024-06-23 01:12 am S 14.0 15.9----29.99-------
2024-06-23 01:06 am S 14.0 15.9----29.99-------
2024-06-23 01:00 am S 15.0 15.9----29.99-0.01------
2024-06-23 12:54 am S 15.0 17.1----29.99-------
2024-06-23 12:48 am S 15.9 18.1----29.99-------
2024-06-23 12:42 am S 15.9 18.1----29.99-------
2024-06-23 12:36 am S 17.1 18.1----29.99-------
2024-06-23 12:30 am S 17.1 19.0----29.99-------
2024-06-23 12:24 am S 18.1 20.0----30.00-------
2024-06-23 12:18 am S 18.1 19.0----30.00-------
2024-06-23 12:12 am S 18.1 20.0----30.00-------
2024-06-23 12:06 am S 19.0 20.0----30.00-------
2024-06-23 12:00 am S 18.1 20.0----30.00+0.00------
2024-06-22 11:54 pm S 17.1 19.0----30.00-------
2024-06-22 11:48 pm S 15.9 19.0----30.00-------
2024-06-22 11:42 pm S 17.1 18.1----30.00-------
2024-06-22 11:36 pm S 15.9 18.1----30.00-------
2024-06-22 11:30 pmSSE 15.0 15.9----30.00-------
2024-06-22 11:24 pmSSE 14.0 15.9----30.00-------
2024-06-22 11:18 pmSSE 14.0 15.9----30.00-------
2024-06-22 11:12 pmSSE 14.0 15.0----30.00-------
2024-06-22 11:06 pmSSE 13.0 15.0----30.00-------
2024-06-22 11:00 pm-------30.00+0.00------
2024-06-22 10:54 pm-------30.01-------
2024-06-22 10:48 pm-------30.01-------
2024-06-22 10:42 pm-------30.01-------
2024-06-22 10:36 pm-------30.01-------
2024-06-22 10:30 pmSSE 12.0 14.0----30.01-------
2024-06-22 10:24 pm SE 12.0 13.0----30.01-------
2024-06-22 10:18 pm SE 11.1 13.0----30.01-------
2024-06-22 10:12 pm SE 11.1 12.0----30.01-------
2024-06-22 10:06 pm SE 11.1 13.0----30.01-------
2024-06-22 10:00 pm SE 12.0 13.0----30.00+0.00------
2024-06-22 09:54 pm SE 12.0 13.0----30.01-------
2024-06-22 09:48 pm SE 12.0 14.0----30.01-------
2024-06-22 09:42 pm SE 13.0 14.0----30.00-------
2024-06-22 09:36 pm SE 13.0 14.0----30.00-------
2024-06-22 09:30 pm SE 13.0 14.0----30.00-------
2024-06-22 09:24 pm SE 13.0 13.0----30.00-------
2024-06-22 09:18 pm SE 13.0 14.0----30.00-------
2024-06-22 09:12 pm SE 13.0 14.0----30.00-------
2024-06-22 09:06 pm SE 14.0 15.0----30.00-------
2024-06-22 09:00 pm SE 14.0 15.0----30.00+0.00------
2024-06-22 08:54 pm SE 14.0 15.9----30.00-------
2024-06-22 08:48 pm SE 14.0 15.9----30.00-------
2024-06-22 08:42 pm SE 15.0 17.1----29.99-------
2024-06-22 08:36 pm SE 15.0 17.1----29.99-------
2024-06-22 08:30 pm SE 15.0 17.1----30.00-------
2024-06-22 08:24 pm SE 15.0 15.9----30.00-------
2024-06-22 08:18 pm SE 14.0 15.9----30.00-------
2024-06-22 08:12 pm SE 15.0 17.1----30.00-------
2024-06-22 08:06 pm SE 15.0 15.9----30.00-------
2024-06-22 08:00 pm SE 15.0 15.9----30.00-0.03------
2024-06-22 07:54 pm SE 17.1 18.1----30.00-------
2024-06-22 07:48 pm SE 15.0 17.1------------
2024-06-22 07:42 pm SE 15.9 18.1------------
2024-06-22 07:36 pm SE 15.0 19.0------------
2024-06-22 07:30 pm SE 17.1 19.0----30.00-------
2024-06-22 07:24 pm SE 18.1 19.0----30.00-------
2024-06-22 07:18 pm SE 15.0 18.1----30.00-------
2024-06-22 07:00 pm SE 18.1 19.0----30.00-0.04------
2024-06-22 06:54 pm SE 18.1 19.0----30.00-------
2024-06-22 06:48 pm SE 18.1 19.0----30.00-------
2024-06-22 06:42 pm SE 15.9 18.1----30.00-------
2024-06-22 06:36 pm SE 15.0 18.1----30.00-------
2024-06-22 06:30 pm SE 14.0 15.0----30.00-------
2024-06-22 06:24 pmSSE 14.0 17.1----30.00-------
2024-06-22 06:18 pm SE 15.0 15.9----30.00-------
2024-06-22 06:12 pmSSE 15.0 15.9----30.00-------
2024-06-22 06:06 pmSSE 13.0 15.0----30.00-------
2024-06-22 06:00 pmSSE 14.0 15.0----30.01-0.05------
2024-06-22 05:54 pmSSE 14.0 15.0----30.01-------
2024-06-22 05:48 pmSSE 12.0 13.0----30.01-------
2024-06-22 05:42 pmSSE 11.1 12.0----30.01-------
2024-06-22 05:36 pmSSE 12.0 13.0----30.01-------
2024-06-22 05:30 pmSSE 12.0 13.0----30.01-------
2024-06-22 05:24 pmSSE 11.1 12.0----30.01-------
2024-06-22 05:18 pm S 11.1 12.0----30.02-------
2024-06-22 05:12 pm S 11.1 13.0----30.02-------
2024-06-22 05:06 pm S 12.0 13.0----30.02-------
2024-06-22 05:00 pm S 11.1 13.0----30.03-0.06------
2024-06-22 04:54 pm S 12.0 12.0----30.03-------
2024-06-22 04:48 pm S 12.0 13.0----30.03-------
2024-06-22 04:42 pm S 12.0 12.0----30.03-------
2024-06-22 04:36 pm S 12.0 13.0----30.03-------
2024-06-22 04:30 pm S 12.0 13.0----30.03-------
2024-06-22 04:24 pm S 12.0 13.0----30.03-------
2024-06-22 04:18 pm S 12.0 13.0----30.04-------
2024-06-22 04:12 pm S 12.0 13.0----30.04-------
2024-06-22 04:06 pm S 12.0 13.0----30.04-------
2024-06-22 04:00 pm S 11.1 12.0----30.04-0.07------
2024-06-22 03:54 pm S 9.9 12.0----30.04-------
2024-06-22 03:48 pm S 12.0 13.0----30.04-------
2024-06-22 03:42 pm S 12.0 13.0----30.04-------
2024-06-22 03:36 pm S 12.0 13.0----30.05-------
2024-06-22 03:30 pm S 12.0 14.0----30.05-------
2024-06-22 03:24 pm S 12.0 14.0----30.05-------
2024-06-22 03:18 pm S 13.0 14.0----30.05-------
2024-06-22 03:12 pm S 13.0 14.0----30.06-------
2024-06-22 03:06 pm S 13.0 14.0----30.06-------
2024-06-22 03:00 pm S 13.0 15.0----30.06-0.07------
2024-06-22 02:54 pm S 13.0 14.0----30.06-------
2024-06-22 02:48 pm S 13.0 15.0----30.07-------
2024-06-22 02:42 pm S 13.0 14.0----30.07-------
2024-06-22 02:36 pm S 13.0 14.0----30.07-------
2024-06-22 02:30 pm S 13.0 14.0----30.07-------
2024-06-22 02:24 pm S 13.0 15.0----30.07-------
2024-06-22 02:18 pm S 13.0 14.0----30.08-------
2024-06-22 02:12 pm S 13.0 14.0----30.08-------
2024-06-22 02:06 pm S 13.0 14.0----30.08-------
2024-06-22 02:00 pm S 13.0 15.0----30.08-0.05------
2024-06-22 01:54 pm S 13.0 14.0----30.08-------
2024-06-22 01:48 pm S 12.0 14.0----30.09-------
2024-06-22 01:42 pm S 12.0 14.0----30.09-------
2024-06-22 01:36 pm S 13.0 14.0----30.09-------
2024-06-22 01:30 pm S 13.0 14.0----30.09-------
2024-06-22 01:24 pm S 12.0 14.0----30.09-------
2024-06-22 01:18 pm S 12.0 14.0----30.09-------
2024-06-22 01:12 pm S 13.0 14.0----30.10-------
2024-06-22 01:06 pm S 12.0 13.0----30.10-------
2024-06-22 01:00 pm S 12.0 13.0----30.11-0.03------
2024-06-22 12:54 pm S 11.1 12.0----30.11-------